Regional Weather Roundup
Issued by NWS

Home | Current Version | Previous Version | Text Only | Print | Product List | Glossary Off
Versions: 1 2 3 4 5 6 7 8 9 10 11 12 13 14 15 16 17 18 19 20 21 22 23 24 25 26 27 28 29 30 31 32 33 34 35 36 37 38 39 40 41 42 43 44 45 46 47 48 49 50

000
ASUS45 KSLC 181410
RWRUT

UTAH REGIONAL WEATHER ROUNDUP
NATIONAL WEATHER SERVICE SALT LAKE CITY UT
800 AM MDT THU SEP 18 2014

UTZ001>011-023>025-181500-

NORTHERN UTAH

CITY           SKY/WX    TMP DP  RH WIND       PRES   REMARKS
HILL AFB       CLEAR     68  44  42 SE12      29.95R
LOGAN          CLEAR     55  48  77 CALM      29.92R
OGDEN          CLEAR     65  44  46 S12       29.92R
PROVO AIRPORT  CLEAR     57  43  58 SE10      29.99R
SALT LAKE CITY PTCLDY    69  46  43 SE13      29.92R
VERNAL         SUNNY     53  42  66 N5        30.07R
WENDOVER       PTCLDY    70  46  43 NE9       29.89R
HEBER CITY     CLEAR     46  43  87 CALM      30.07S
WEST JORDAN    CLEAR     70  41  35 SE15      29.96R

$$

UTZ012>022-026-027-181500-

SOUTHERN UTAH

CITY           SKY/WX    TMP DP  RH WIND       PRES   REMARKS
BRYCE CANYON   CLEAR     46  44  93 W5        30.21R
CEDAR CITY     CLEAR     60  50  69 S3        30.05R
MILFORD        CLEAR     56  49  77 SE9       30.00R
MOAB/CYNLANDS  SUNNY     67  47  48 E5        30.00R
PRICE          CLEAR     61  38  42 NW6       30.09R
ST GEORGE      SUNNY     70  54  56 SE6       29.91R
KANAB            N/A     57  46  67 NE5       30.07R

$$

REGIONAL REPORTS     COLORADO/ARIZONA

CITY           SKY/WX    TMP DP  RH WIND       PRES   REMARKS
CRAIG, CO      SUNNY     44  40  85 CALM      30.15R
GRAND JUNCTION SUNNY     60  41  49 SE5       30.05R
RIFLE          SUNNY     52  42  69 CALM      30.13R
MONTROSE       SUNNY     55  43  63 S6        30.14R
CORTEZ         SUNNY     48  46  93 CALM      30.14R
PAGE, AZ       CLEAR     69  53  56 W3        29.99R
GRAND CANYON   CLEAR     48  45  89 CALM      30.14R
KINGMAN        CLEAR     69  61  75 CALM      29.93R
FLAGSTAFF      CLEAR     49  47  93 CALM      30.15R

$$

REGIONAL REPORTS    NEVADA/IDAHO/WYOMING

CITY           SKY/WX    TMP DP  RH WIND       PRES   REMARKS
LAS VEGAS, NV  PTCLDY    81  60  48 SW7       29.77R
ELY            PTCLDY    60  47  61 S10       30.05R
ELKO           MOCLDY    63  45  51 E3        29.92R
POCATELLO, ID  CLOUDY    66  49  54 CALM      29.90R
BURLEY         MOCLDY    64  51  62 CALM      29.84R
EVANSTON, WY   CLEAR     57  37  47 SE9       30.14R
ROCK SPRINGS   MOSUNNY   54  34  46 E3        30.12R

$$



USA.gov is the U.S. government's official web portal to all federal, state and local government web resources and services.